Time,TemperatureF,DewpointF,PressureIn,WindDirection,WindDirectionDegrees,WindSpeedMPH,WindSpeedGustMPH,Humidity,HourlyPrecipIn,Conditions,Clouds,dailyrainin,SoftwareType,DateUTC
2013-05-24 00:00:00,63.9,53.1,30.17,ENE,77,6.0,7.0,68,0.00,BKN,BKN,0.00,WeatherDisplay:10.37,2013-05-24 05:00:00,
2013-05-24 00:06:00,63.6,53.3,30.16,East,85,6.0,7.0,69,0.00,SCT,SCT,0.00,WeatherDisplay:10.37,2013-05-24 05:06:00,
2013-05-24 00:12:00,63.5,53.1,30.16,East,86,5.0,9.0,69,0.00,SCT,SCT,0.00,WeatherDisplay:10.37,2013-05-24 05:12:00,
2013-05-24 00:18:00,63.4,53.0,30.17,East,82,6.0,8.0,69,0.00,SCT,SCT,0.00,WeatherDisplay:10.37,2013-05-24 05:18:00,
2013-05-24 00:24:00,63.4,53.4,30.17,East,80,7.0,9.0,70,0.00,SCT,SCT,0.00,WeatherDisplay:10.37,2013-05-24 05:24:00,
2013-05-24 00:30:00,63.0,53.0,30.17,East,86,5.0,7.0,70,0.00,SCT,SCT,0.00,WeatherDisplay:10.37,2013-05-24 05:30:00,
2013-05-24 00:36:00,63.0,53.0,30.17,East,79,6.0,10.0,70,0.00,SCT,SCT,0.00,WeatherDisplay:10.37,2013-05-24 05:36:00,
2013-05-24 00:42:00,62.8,53.2,30.17,East,82,7.0,9.0,71,0.00,SCT,SCT,0.00,WeatherDisplay:10.37,2013-05-24 05:42:00,
2013-05-24 00:48:00,62.6,53.0,30.17,East,90,7.0,12.0,71,0.00,SCT,SCT,0.00,WeatherDisplay:10.37,2013-05-24 05:48:00,
2013-05-24 00:54:00,62.6,53.0,30.17,East,88,5.0,9.0,71,0.00,SCT,SCT,0.00,WeatherDisplay:10.37,2013-05-24 05:54:00,
2013-05-24 01:00:00,62.5,52.9,30.17,East,80,6.0,7.0,71,0.00,SCT,SCT,0.00,WeatherDisplay:10.37,2013-05-24 06:00:00,
2013-05-24 01:06:00,62.3,53.1,30.17,ENE,73,8.0,15.0,72,0.00,SCT,SCT,0.00,WeatherDisplay:10.37,2013-05-24 06:06:00,
2013-05-24 01:12:00,62.1,52.9,30.17,East,81,6.0,9.0,72,0.00,SCT,SCT,0.00,WeatherDisplay:10.37,2013-05-24 06:12:00,
2013-05-24 01:18:00,61.9,52.7,30.18,East,89,5.0,8.0,72,0.00,SCT,SCT,0.00,WeatherDisplay:10.37,2013-05-24 06:18:00,
2013-05-24 01:24:00,61.9,53.1,30.18,East,98,8.0,9.0,73,0.00,SCT,SCT,0.00,WeatherDisplay:10.37,2013-05-24 06:24:00,
2013-05-24 01:30:00,61.9,53.1,30.18,East,96,5.0,6.0,73,0.00,SCT,SCT,0.00,WeatherDisplay:10.37,2013-05-24 06:30:00,
2013-05-24 01:36:00,61.7,52.9,30.18,East,85,7.0,9.0,73,0.00,SCT,SCT,0.00,WeatherDisplay:10.37,2013-05-24 06:36:00,
2013-05-24 01:42:00,61.6,52.8,30.17,ENE,78,7.0,9.0,73,0.00,SCT,SCT,0.00,WeatherDisplay:10.37,2013-05-24 06:42:00,
2013-05-24 01:48:00,61.4,52.6,30.18,East,85,6.0,9.0,73,0.00,SCT,SCT,0.00,WeatherDisplay:10.37,2013-05-24 06:48:00,
2013-05-24 01:54:00,61.2,53.2,30.18,ESE,108,6.0,8.0,75,0.00,SCT,SCT,0.00,WeatherDisplay:10.37,2013-05-24 06:54:00,
2013-05-24 02:00:00,60.8,53.1,30.18,ESE,110,6.0,9.0,76,0.00,SCT,SCT,0.00,WeatherDisplay:10.37,2013-05-24 07:00:00,
2013-05-24 02:06:00,60.8,53.1,30.18,East,89,9.0,14.0,76,0.00,SCT,SCT,0.00,WeatherDisplay:10.37,2013-05-24 07:06:00,
2013-05-24 02:12:00,60.7,53.0,30.18,East,100,7.0,10.0,76,0.00,SCT,SCT,0.00,WeatherDisplay:10.37,2013-05-24 07:12:00,
2013-05-24 02:18:00,60.5,52.9,30.19,East,86,5.0,7.0,76,0.00,SCT,SCT,0.00,WeatherDisplay:10.37,2013-05-24 07:18:00,
2013-05-24 02:24:00,60.3,53.0,30.19,East,91,3.0,5.0,77,0.00,SCT,SCT,0.00,WeatherDisplay:10.37,2013-05-24 07:24:00,
2013-05-24 02:30:00,59.9,52.6,30.19,East,100,5.0,7.0,77,0.00,SCT,SCT,0.00,WeatherDisplay:10.37,2013-05-24 07:30:00,
2013-05-24 02:36:00,59.8,52.9,30.19,East,100,6.0,8.0,78,0.00,BKN,BKN,0.00,WeatherDisplay:10.37,2013-05-24 07:36:00,
2013-05-24 02:42:00,59.8,52.9,30.19,ENE,78,7.0,8.0,78,0.00,BKN,BKN,0.00,WeatherDisplay:10.37,2013-05-24 07:42:00,
2013-05-24 02:48:00,59.6,52.7,30.19,East,87,6.0,7.0,78,0.00,BKN,BKN,0.00,WeatherDisplay:10.37,2013-05-24 07:48:00,
2013-05-24 02:54:00,59.4,52.5,30.19,East,89,5.0,7.0,78,0.00,BKN,BKN,0.00,WeatherDisplay:10.37,2013-05-24 07:54:00,
2013-05-24 03:00:00,59.2,52.4,30.19,ENE,63,5.0,13.0,78,0.00,BKN,BKN,0.00,WeatherDisplay:10.37,2013-05-24 08:00:00,
2013-05-24 03:06:00,59.2,52.7,30.19,East,84,5.0,7.0,79,0.00,BKN,BKN,0.00,WeatherDisplay:10.37,2013-05-24 08:06:00,
2013-05-24 03:12:00,59.0,52.5,30.19,East,95,5.0,9.0,79,0.00,BKN,BKN,0.00,WeatherDisplay:10.37,2013-05-24 08:12:00,
2013-05-24 03:18:00,58.9,52.4,30.19,East,86,6.0,12.0,79,0.00,BKN,BKN,0.00,WeatherDisplay:10.37,2013-05-24 08:18:00,
2013-05-24 03:24:00,58.7,52.2,30.19,East,92,7.0,9.0,79,0.00,BKN,BKN,0.00,WeatherDisplay:10.37,2013-05-24 08:24:00,
2013-05-24 03:30:00,58.7,52.2,30.19,ESE,109,8.0,9.0,79,0.00,BKN,BKN,0.00,WeatherDisplay:10.37,2013-05-24 08:30:00,
2013-05-24 03:36:00,58.5,52.0,30.19,ENE,78,6.0,9.0,79,0.00,BKN,BKN,0.00,WeatherDisplay:10.37,2013-05-24 08:36:00,
2013-05-24 03:42:00,58.3,51.8,30.18,ENE,72,6.0,11.0,79,0.00,BKN,BKN,0.00,WeatherDisplay:10.37,2013-05-24 08:42:00,
2013-05-24 03:48:00,58.3,51.8,30.18,East,98,6.0,13.0,79,0.00,BKN,BKN,0.00,WeatherDisplay:10.37,2013-05-24 08:48:00,
2013-05-24 03:54:00,58.1,51.6,30.18,ESE,105,6.0,9.0,79,0.00,BKN,BKN,0.00,WeatherDisplay:10.37,2013-05-24 08:54:00,
2013-05-24 04:00:00,58.1,51.6,30.18,East,101,5.0,8.0,79,0.00,BKN,BKN,0.00,WeatherDisplay:10.37,2013-05-24 09:00:00,
2013-05-24 04:06:00,58.0,51.5,30.18,East,92,8.0,9.0,79,0.00,BKN,BKN,0.00,WeatherDisplay:10.37,2013-05-24 09:06:00,
2013-05-24 04:12:00,58.0,51.5,30.18,East,80,7.0,13.0,79,0.00,BKN,BKN,0.00,WeatherDisplay:10.37,2013-05-24 09:12:00,
2013-05-24 04:18:00,58.1,51.6,30.18,ESE,102,3.0,6.0,79,0.00,BKN,BKN,0.00,WeatherDisplay:10.37,2013-05-24 09:18:00,
2013-05-24 04:24:00,58.1,51.6,30.18,ESE,107,6.0,10.0,79,0.00,BKN,BKN,0.00,WeatherDisplay:10.37,2013-05-24 09:24:00,
2013-05-24 04:30:00,58.1,51.6,30.20,East,99,7.0,10.0,79,0.00,BKN,BKN,0.00,WeatherDisplay:10.37,2013-05-24 09:30:00,
2013-05-24 04:36:00,58.3,51.8,30.20,East,90,6.0,8.0,79,0.00,BKN,BKN,0.00,WeatherDisplay:10.37,2013-05-24 09:36:00,
2013-05-24 04:42:00,58.3,51.4,30.20,East,86,5.0,11.0,78,0.00,BKN,BKN,0.00,WeatherDisplay:10.37,2013-05-24 09:42:00,
2013-05-24 04:48:00,58.1,51.2,30.20,East,95,8.0,13.0,78,0.00,BKN,BKN,0.00,WeatherDisplay:10.37,2013-05-24 09:48:00,
2013-05-24 04:54:00,58.1,51.2,30.19,ENE,72,9.0,10.0,78,0.00,BKN,BKN,0.00,WeatherDisplay:10.37,2013-05-24 09:54:00,
2013-05-24 05:00:00,58.0,51.1,30.19,ESE,108,5.0,8.0,78,0.00,BKN,BKN,0.00,WeatherDisplay:10.37,2013-05-24 10:00:00,
2013-05-24 05:06:00,57.8,50.9,30.18,ESE,106,6.0,9.0,78,0.00,BKN,BKN,0.00,WeatherDisplay:10.37,2013-05-24 10:06:00,
2013-05-24 05:12:00,57.6,51.1,30.19,East,89,5.0,7.0,79,0.00,BKN,BKN,0.00,WeatherDisplay:10.37,2013-05-24 10:12:00,
2013-05-24 05:18:00,57.6,51.1,30.19,East,90,6.0,8.0,79,0.00,BKN,BKN,0.00,WeatherDisplay:10.37,2013-05-24 10:18:00,
2013-05-24 05:24:00,57.4,50.9,30.19,East,93,1.0,6.0,79,0.00,BKN,BKN,0.00,WeatherDisplay:10.37,2013-05-24 10:24:00,
2013-05-24 05:30:00,57.2,50.7,30.19,East,83,7.0,9.0,79,0.00,BKN,BKN,0.00,WeatherDisplay:10.37,2013-05-24 10:30:00,
2013-05-24 05:36:00,57.1,50.6,30.19,East,94,6.0,9.0,79,0.00,BKN,BKN,0.00,WeatherDisplay:10.37,2013-05-24 10:36:00,
2013-05-24 05:42:00,57.1,50.9,30.19,East,94,5.0,7.0,80,0.00,BKN,BKN,0.00,WeatherDisplay:10.37,2013-05-24 10:42:00,
2013-05-24 05:48:00,57.1,50.9,30.19,ESE,105,6.0,7.0,80,0.00,BKN,BKN,0.00,WeatherDisplay:10.37,2013-05-24 10:48:00,
2013-05-24 05:54:00,57.1,50.9,30.19,East,86,5.0,12.0,80,0.00,BKN,BKN,0.00,WeatherDisplay:10.37,2013-05-24 10:54:00,
2013-05-24 06:00:00,56.9,50.8,30.19,East,91,6.0,8.0,80,0.00,BKN,BKN,0.00,WeatherDisplay:10.37,2013-05-24 11:00:00,
2013-05-24 06:06:00,56.7,50.6,30.19,East,86,6.0,9.0,80,0.00,BKN,BKN,0.00,WeatherDisplay:10.37,2013-05-24 11:06:00,
2013-05-24 06:12:00,56.7,50.9,30.19,East,82,6.0,8.0,81,0.00,BKN,BKN,0.00,WeatherDisplay:10.37,2013-05-24 11:12:00,
2013-05-24 06:18:00,56.7,50.9,30.19,East,90,6.0,8.0,81,0.00,BKN,BKN,0.00,WeatherDisplay:10.37,2013-05-24 11:18:00,
2013-05-24 06:24:00,56.6,50.8,30.19,ESE,107,3.0,7.0,81,0.00,BKN,BKN,0.00,WeatherDisplay:10.37,2013-05-24 11:24:00,
2013-05-24 06:30:00,56.5,50.7,30.19,East,88,6.0,9.0,81,0.00,BKN,BKN,0.00,WeatherDisplay:10.37,2013-05-24 11:30:00,
2013-05-24 06:36:00,56.5,50.7,30.19,East,101,6.0,10.0,81,0.00,SCT,SCT,0.00,WeatherDisplay:10.37,2013-05-24 11:36:00,
2013-05-24 06:42:00,56.5,50.7,30.18,East,90,6.0,8.0,81,0.00,SCT,SCT,0.00,WeatherDisplay:10.37,2013-05-24 11:42:00,
2013-05-24 06:48:00,56.5,50.7,30.18,East,89,6.0,7.0,81,0.00,SCT,SCT,0.00,WeatherDisplay:10.37,2013-05-24 11:48:00,
2013-05-24 06:54:00,56.5,50.7,30.18,East,89,8.0,10.0,81,0.00,SCT,SCT,0.00,WeatherDisplay:10.37,2013-05-24 11:54:00,
2013-05-24 07:00:00,56.9,51.1,30.18,East,93,7.0,10.0,81,0.00,SCT,SCT,0.00,WeatherDisplay:10.37,2013-05-24 12:00:00,
2013-05-24 07:06:00,57.1,51.3,30.17,ESE,106,7.0,9.0,81,0.00,SCT,SCT,0.00,WeatherDisplay:10.37,2013-05-24 12:06:00,
2013-05-24 07:12:00,57.4,51.6,30.17,East,96,6.0,12.0,81,0.00,SCT,SCT,0.00,WeatherDisplay:10.37,2013-05-24 12:12:00,
2013-05-24 07:18:00,58.0,51.9,30.17,East,95,6.0,9.0,80,0.00,SCT,SCT,0.00,WeatherDisplay:10.37,2013-05-24 12:18:00,
2013-05-24 07:24:00,58.5,52.0,30.18,East,94,2.0,12.0,79,0.00,SCT,SCT,0.00,WeatherDisplay:10.37,2013-05-24 12:24:00,
2013-05-24 07:30:00,58.5,52.0,30.18,East,90,6.0,6.0,79,0.00,SCT,SCT,0.00,WeatherDisplay:10.37,2013-05-24 12:30:00,
2013-05-24 07:36:00,58.9,52.0,30.18,East,90,6.0,12.0,78,0.00,BKN,BKN,0.00,WeatherDisplay:10.37,2013-05-24 12:36:00,
2013-05-24 07:42:00,58.9,52.0,30.19,ESE,108,2.0,2.0,78,0.00,BKN,BKN,0.00,WeatherDisplay:10.37,2013-05-24 12:42:00,
2013-05-24 07:48:00,58.9,52.0,30.19,ESE,112,2.0,2.0,78,0.00,BKN,BKN,0.00,WeatherDisplay:10.37,2013-05-24 12:48:00,
2013-05-24 07:54:00,58.9,52.0,30.19,ESE,112,2.0,2.0,78,0.00,BKN,BKN,0.00,WeatherDisplay:10.37,2013-05-24 12:54:00,
2013-05-24 08:00:00,60.1,52.8,30.19,East,92,8.0,12.0,77,0.00,BKN,BKN,0.00,WeatherDisplay:10.37,2013-05-24 13:00:00,
2013-05-24 08:06:00,60.5,52.9,30.19,East,97,5.0,9.0,76,0.00,BKN,BKN,0.00,WeatherDisplay:10.37,2013-05-24 13:06:00,
2013-05-24 08:12:00,60.5,52.9,30.19,East,98,7.0,14.0,76,0.00,BKN,BKN,0.00,WeatherDisplay:10.37,2013-05-24 13:12:00,
2013-05-24 08:18:00,60.7,53.0,30.19,East,91,8.0,10.0,76,0.00,BKN,BKN,0.00,WeatherDisplay:10.37,2013-05-24 13:18:00,
2013-05-24 08:24:00,60.7,53.0,30.19,East,91,9.0,14.0,76,0.00,BKN,BKN,0.00,WeatherDisplay:10.37,2013-05-24 13:24:00,
2013-05-24 08:30:00,61.2,53.2,30.18,East,81,8.0,12.0,75,0.00,BKN,BKN,0.00,WeatherDisplay:10.37,2013-05-24 13:30:00,
2013-05-24 08:36:00,61.7,52.9,30.18,ENE,73,9.0,14.0,73,0.00,BKN,BKN,0.00,WeatherDisplay:10.37,2013-05-24 13:36:00,
2013-05-24 08:42:00,61.7,52.9,30.18,East,101,6.0,9.0,73,0.00,BKN,BKN,0.00,WeatherDisplay:10.37,2013-05-24 13:42:00,
2013-05-24 08:48:00,62.5,53.7,30.18,East,96,7.0,9.0,73,0.00,BKN,BKN,0.00,WeatherDisplay:10.37,2013-05-24 13:48:00,
2013-05-24 08:54:00,63.1,53.9,30.19,ESE,105,6.0,9.0,72,0.00,BKN,BKN,0.00,WeatherDisplay:10.37,2013-05-24 13:54:00,
2013-05-24 09:00:00,63.5,53.9,30.19,ESE,111,9.0,14.0,71,0.00,BKN,BKN,0.00,WeatherDisplay:10.37,2013-05-24 14:00:00,
2013-05-24 09:06:00,64.1,54.1,30.19,ENE,74,7.0,9.0,70,0.00,SCT,SCT,0.00,WeatherDisplay:10.37,2013-05-24 14:06:00,
2013-05-24 09:12:00,64.4,54.4,30.19,East,95,5.0,6.0,70,0.00,SCT,SCT,0.00,WeatherDisplay:10.37,2013-05-24 14:12:00,
2013-05-24 09:18:00,64.6,54.6,30.19,ESE,116,5.0,7.0,70,0.00,SCT,SCT,0.00,WeatherDisplay:10.37,2013-05-24 14:18:00,
2013-05-24 09:24:00,64.6,54.6,30.19,East,94,8.0,11.0,70,0.00,SCT,SCT,0.00,WeatherDisplay:10.37,2013-05-24 14:24:00,
2013-05-24 09:30:00,65.5,55.4,30.19,East,81,7.0,8.0,70,0.00,SCT,SCT,0.00,WeatherDisplay:10.37,2013-05-24 14:30:00,
2013-05-24 09:36:00,65.3,54.8,30.19,ESE,105,6.0,9.0,69,0.00,SCT,SCT,0.00,WeatherDisplay:10.37,2013-05-24 14:36:00,
2013-05-24 09:42:00,65.4,55.0,30.19,ESE,103,7.0,9.0,69,0.00,SCT,SCT,0.00,WeatherDisplay:10.37,2013-05-24 14:42:00,
2013-05-24 09:48:00,66.2,55.7,30.20,East,96,6.0,7.0,69,0.00,SCT,SCT,0.00,WeatherDisplay:10.37,2013-05-24 14:48:00,
2013-05-24 09:54:00,66.1,55.6,30.20,East,86,6.0,12.0,69,0.00,SCT,SCT,0.00,WeatherDisplay:10.37,2013-05-24 14:54:00,
2013-05-24 10:00:00,66.2,55.7,30.20,East,99,6.0,12.0,69,0.00,SCT,SCT,0.00,WeatherDisplay:10.37,2013-05-24 15:00:00,
2013-05-24 10:06:00,66.0,55.6,30.20,ESE,110,8.0,9.0,69,0.00,BKN,BKN,0.00,WeatherDisplay:10.37,2013-05-24 15:06:00,
2013-05-24 10:12:00,66.4,55.9,30.21,ESE,116,7.0,8.0,69,0.00,BKN,BKN,0.00,WeatherDisplay:10.37,2013-05-24 15:12:00,
2013-05-24 10:18:00,66.8,56.3,30.21,ESE,119,8.0,9.0,69,0.00,BKN,BKN,0.00,WeatherDisplay:10.37,2013-05-24 15:18:00,
2013-05-24 10:24:00,67.0,56.5,30.21,East,94,7.0,9.0,69,0.00,BKN,BKN,0.00,WeatherDisplay:10.37,2013-05-24 15:24:00,
2013-05-24 10:30:00,66.3,55.8,30.21,ESE,106,8.0,12.0,69,0.00,BKN,BKN,0.00,WeatherDisplay:10.37,2013-05-24 15:30:00,
2013-05-24 10:36:00,66.6,56.1,30.21,East,101,7.0,9.0,69,0.00,BKN,BKN,0.00,WeatherDisplay:10.37,2013-05-24 15:36:00,
2013-05-24 10:42:00,67.4,56.8,30.21,East,87,8.0,12.0,69,0.00,BKN,BKN,0.00,WeatherDisplay:10.37,2013-05-24 15:42:00,
2013-05-24 10:48:00,67.5,57.0,30.21,SE,125,6.0,10.0,69,0.00,BKN,BKN,0.00,WeatherDisplay:10.37,2013-05-24 15:48:00,
2013-05-24 10:54:00,68.8,57.4,30.20,ESE,104,8.0,12.0,67,0.00,BKN,BKN,0.00,WeatherDisplay:10.37,2013-05-24 15:54:00,
2013-05-24 11:00:00,68.7,57.3,30.20,SE,132,6.0,7.0,67,0.00,BKN,BKN,0.00,WeatherDisplay:10.37,2013-05-24 16:00:00,
2013-05-24 11:06:00,69.7,57.8,30.20,SE,127,7.0,11.0,66,0.00,BKN,BKN,0.00,WeatherDisplay:10.37,2013-05-24 16:06:00,
2013-05-24 11:12:00,70.0,58.5,30.20,East,100,7.0,9.0,67,0.00,BKN,BKN,0.00,WeatherDisplay:10.37,2013-05-24 16:12:00,
2013-05-24 11:18:00,69.7,58.2,30.20,ESE,107,5.0,7.0,67,0.00,BKN,BKN,0.00,WeatherDisplay:10.37,2013-05-24 16:18:00,
2013-05-24 11:24:00,69.6,58.1,30.20,ESE,104,6.0,7.0,67,0.00,BKN,BKN,0.00,WeatherDisplay:10.37,2013-05-24 16:24:00,
2013-05-24 11:30:00,68.9,57.9,30.20,ESE,120,7.0,8.0,68,0.00,BKN,BKN,0.00,WeatherDisplay:10.37,2013-05-24 16:30:00,
2013-05-24 11:36:00,69.3,58.2,30.20,SE,126,5.0,9.0,68,0.00,BKN,BKN,0.00,WeatherDisplay:10.37,2013-05-24 16:36:00,
2013-05-24 11:42:00,69.5,58.4,30.19,SE,133,7.0,9.0,68,0.00,BKN,BKN,0.00,WeatherDisplay:10.37,2013-05-24 16:42:00,
2013-05-24 11:48:00,69.4,57.9,30.19,SSE,153,6.0,8.0,67,0.00,BKN,BKN,0.00,WeatherDisplay:10.37,2013-05-24 16:48:00,
2013-05-24 11:54:00,69.3,58.2,30.20,SE,135,3.0,7.0,68,0.00,BKN,BKN,0.00,WeatherDisplay:10.37,2013-05-24 16:54:00,
2013-05-24 12:00:00,69.3,58.3,30.20,ESE,120,5.0,6.0,68,0.00,BKN,BKN,0.00,WeatherDisplay:10.37,2013-05-24 17:00:00,
2013-05-24 12:06:00,70.0,58.6,30.20,ESE,118,5.0,6.0,67,0.00,OVC,OVC,0.00,WeatherDisplay:10.37,2013-05-24 17:06:00,
2013-05-24 12:12:00,71.1,59.5,30.20,East,98,6.0,7.0,67,0.00,OVC,OVC,0.00,WeatherDisplay:10.37,2013-05-24 17:12:00,
2013-05-24 12:18:00,70.9,59.0,30.20,ESE,110,6.0,8.0,66,0.00,OVC,OVC,0.00,WeatherDisplay:10.37,2013-05-24 17:18:00,
2013-05-24 12:24:00,71.5,60.0,30.20,ESE,119,5.0,7.0,67,0.00,OVC,OVC,0.00,WeatherDisplay:10.37,2013-05-24 17:24:00,
2013-05-24 12:30:00,72.7,60.6,30.19,ESE,103,3.0,5.0,66,0.00,OVC,OVC,0.00,WeatherDisplay:10.37,2013-05-24 17:30:00,
2013-05-24 12:36:00,71.5,60.0,30.19,SE,134,6.0,9.0,67,0.00,OVC,OVC,0.00,WeatherDisplay:10.37,2013-05-24 17:36:00,
2013-05-24 12:42:00,71.4,59.5,30.19,ESE,116,5.0,9.0,66,0.00,OVC,OVC,0.00,WeatherDisplay:10.37,2013-05-24 17:42:00,
2013-05-24 12:48:00,71.3,59.3,30.19,SE,131,5.0,7.0,66,0.00,OVC,OVC,0.00,WeatherDisplay:10.37,2013-05-24 17:48:00,
2013-05-24 12:54:00,71.3,59.7,30.19,SE,140,6.0,12.0,67,0.00,OVC,OVC,0.00,WeatherDisplay:10.37,2013-05-24 17:54:00,
2013-05-24 13:00:00,71.1,59.5,30.19,SSE,156,8.0,12.0,67,0.00,OVC,OVC,0.00,WeatherDisplay:10.37,2013-05-24 18:00:00,
2013-05-24 13:06:00,71.1,60.0,30.19,SSE,151,5.0,6.0,68,0.00,OVC,OVC,0.00,WeatherDisplay:10.37,2013-05-24 18:06:00,
2013-05-24 13:12:00,71.3,60.2,30.19,East,92,7.0,9.0,68,0.00,OVC,OVC,0.00,WeatherDisplay:10.37,2013-05-24 18:12:00,
2013-05-24 13:18:00,71.6,60.5,30.18,East,92,7.0,9.0,68,0.00,OVC,OVC,0.00,WeatherDisplay:10.37,2013-05-24 18:18:00,
2013-05-24 13:24:00,72.5,60.9,30.18,SE,141,7.0,9.0,67,0.00,OVC,OVC,0.00,WeatherDisplay:10.37,2013-05-24 18:24:00,
2013-05-24 13:30:00,72.4,60.8,30.18,SE,133,5.0,9.0,67,0.00,OVC,OVC,0.00,WeatherDisplay:10.37,2013-05-24 18:30:00,
2013-05-24 13:36:00,72.7,61.1,30.18,ESE,106,7.0,9.0,67,0.00,OVC,OVC,0.00,WeatherDisplay:10.37,2013-05-24 18:36:00,
2013-05-24 13:42:00,72.4,60.8,30.18,ESE,106,3.0,7.0,67,0.00,OVC,OVC,0.00,WeatherDisplay:10.37,2013-05-24 18:42:00,
2013-05-24 13:48:00,72.5,60.9,30.18,East,94,6.0,8.0,67,0.00,OVC,OVC,0.00,WeatherDisplay:10.37,2013-05-24 18:48:00,
2013-05-24 13:54:00,72.1,60.9,30.18,East,89,6.0,9.0,68,0.00,OVC,OVC,0.00,WeatherDisplay:10.37,2013-05-24 18:54:00,
2013-05-24 14:00:00,71.8,60.7,30.18,ESE,113,1.0,9.0,68,0.00,OVC,OVC,0.00,WeatherDisplay:10.37,2013-05-24 19:00:00,
2013-05-24 14:06:00,71.5,60.4,30.17,ESE,112,7.0,7.0,68,0.00,OVC,OVC,0.00,WeatherDisplay:10.37,2013-05-24 19:06:00,
2013-05-24 14:12:00,71.6,60.9,30.17,ESE,106,5.0,7.0,69,0.00,OVC,OVC,0.00,WeatherDisplay:10.37,2013-05-24 19:12:00,
2013-05-24 14:18:00,72.0,60.8,30.16,SE,134,9.0,9.0,68,0.00,OVC,OVC,0.00,WeatherDisplay:10.37,2013-05-24 19:18:00,
2013-05-24 14:24:00,72.0,60.8,30.16,SSE,167,7.0,9.0,68,0.00,OVC,OVC,0.00,WeatherDisplay:10.37,2013-05-24 19:24:00,
2013-05-24 14:30:00,72.8,62.0,30.17,ESE,122,3.0,6.0,69,0.00,OVC,OVC,0.00,WeatherDisplay:10.37,2013-05-24 19:30:00,
2013-05-24 14:36:00,72.7,61.5,30.17,East,100,3.0,8.0,68,0.00,OVC,OVC,0.00,WeatherDisplay:10.37,2013-05-24 19:36:00,
2013-05-24 14:42:00,72.5,61.4,30.16,ESE,103,5.0,9.0,68,0.00,OVC,OVC,0.00,WeatherDisplay:10.37,2013-05-24 19:42:00,
2013-05-24 14:48:00,72.8,61.6,30.16,ESE,105,5.0,8.0,68,0.00,OVC,OVC,0.00,WeatherDisplay:10.37,2013-05-24 19:48:00,
2013-05-24 14:54:00,73.7,62.5,30.16,ESE,104,6.0,7.0,68,0.00,OVC,OVC,0.00,WeatherDisplay:10.37,2013-05-24 19:54:00,
2013-05-24 15:00:00,75.4,63.2,30.16,SE,125,6.0,14.0,66,0.00,OVC,OVC,0.00,WeatherDisplay:10.37,2013-05-24 20:00:00,
2013-05-24 15:06:00,76.1,63.9,30.16,SE,135,5.0,7.0,66,0.00,OVC,OVC,0.00,WeatherDisplay:10.37,2013-05-24 20:06:00,
2013-05-24 15:12:00,75.9,63.7,30.16,East,95,6.0,8.0,66,0.00,OVC,OVC,0.00,WeatherDisplay:10.37,2013-05-24 20:12:00,
2013-05-24 15:24:00,76.4,64.2,30.15,ESE,119,8.0,10.0,66,0.00,OVC,OVC,0.00,WeatherDisplay:10.37,2013-05-24 20:24:00,
2013-05-24 15:30:00,77.1,64.4,30.14,East,93,8.0,14.0,65,0.00,OVC,OVC,0.00,WeatherDisplay:10.37,2013-05-24 20:30:00,
2013-05-24 15:36:00,78.0,64.8,30.14,East,88,3.0,8.0,64,0.00,OVC,OVC,0.00,WeatherDisplay:10.37,2013-05-24 20:36:00,
2013-05-24 15:42:00,77.8,64.7,30.14,East,91,7.0,10.0,64,0.00,OVC,OVC,0.00,WeatherDisplay:10.37,2013-05-24 20:42:00,
2013-05-24 15:48:00,78.0,64.8,30.14,ESE,119,8.0,15.0,64,0.00,OVC,OVC,0.00,WeatherDisplay:10.37,2013-05-24 20:48:00,
2013-05-24 15:54:00,78.3,65.1,30.14,ESE,115,3.0,3.0,64,0.00,OVC,OVC,0.00,WeatherDisplay:10.37,2013-05-24 20:54:00,
2013-05-24 16:00:00,77.8,65.0,30.14,ESE,120,5.0,10.0,65,0.00,OVC,OVC,0.00,WeatherDisplay:10.37,2013-05-24 21:00:00,
2013-05-24 16:06:00,76.1,63.9,30.13,SE,124,5.0,8.0,66,0.00,BKN,BKN,0.00,WeatherDisplay:10.37,2013-05-24 21:06:00,
2013-05-24 16:12:00,75.6,63.9,30.13,ESE,114,6.0,9.0,67,0.00,BKN,BKN,0.00,WeatherDisplay:10.37,2013-05-24 21:12:00,
2013-05-24 16:18:00,76.0,64.2,30.12,ESE,115,5.0,9.0,67,0.00,BKN,BKN,0.00,WeatherDisplay:10.37,2013-05-24 21:18:00,
2013-05-24 16:24:00,75.8,64.0,30.12,ESE,112,5.0,9.0,67,0.00,BKN,BKN,0.00,WeatherDisplay:10.37,2013-05-24 21:24:00,
2013-05-24 16:30:00,76.1,64.3,30.12,ESE,118,5.0,8.0,67,0.00,BKN,BKN,0.00,WeatherDisplay:10.37,2013-05-24 21:30:00,
2013-05-24 16:36:00,76.1,64.3,30.11,East,99,6.0,7.0,67,0.00,BKN,BKN,0.00,WeatherDisplay:10.37,2013-05-24 21:36:00,
2013-05-24 16:42:00,76.0,64.2,30.11,ESE,104,5.0,7.0,67,0.00,BKN,BKN,0.00,WeatherDisplay:10.37,2013-05-24 21:42:00,
2013-05-24 16:48:00,76.3,64.5,30.11,ESE,104,3.0,6.0,67,0.00,BKN,BKN,0.00,WeatherDisplay:10.37,2013-05-24 21:48:00,
2013-05-24 16:54:00,76.5,64.7,30.11,SE,144,6.0,9.0,67,0.00,BKN,BKN,0.00,WeatherDisplay:10.37,2013-05-24 21:54:00,
2013-05-24 17:00:00,76.1,64.7,30.11,ESE,115,3.0,4.0,68,0.00,BKN,BKN,0.00,WeatherDisplay:10.37,2013-05-24 22:00:00,
2013-05-24 17:06:00,76.4,64.6,30.10,East,91,6.0,13.0,67,0.00,OVC,OVC,0.00,WeatherDisplay:10.37,2013-05-24 22:06:00,
2013-05-24 17:12:00,76.9,65.1,30.10,ESE,116,6.0,7.0,67,0.00,OVC,OVC,0.00,WeatherDisplay:10.37,2013-05-24 22:12:00,
2013-05-24 17:18:00,76.3,64.5,30.10,SE,126,5.0,9.0,67,0.00,OVC,OVC,0.00,WeatherDisplay:10.37,2013-05-24 22:18:00,
2013-05-24 17:24:00,76.4,64.7,30.10,SSE,158,6.0,8.0,67,0.00,OVC,OVC,0.00,WeatherDisplay:10.37,2013-05-24 22:24:00,
2013-05-24 17:30:00,76.1,64.3,30.10,ESE,122,3.0,7.0,67,0.00,OVC,OVC,0.00,WeatherDisplay:10.37,2013-05-24 22:30:00,
2013-05-24 17:36:00,76.1,64.7,30.10,ESE,118,2.0,7.0,68,0.00,OVC,OVC,0.00,WeatherDisplay:10.37,2013-05-24 22:36:00,
2013-05-24 17:42:00,76.1,64.7,30.09,ESE,118,5.0,7.0,68,0.00,OVC,OVC,0.00,WeatherDisplay:10.37,2013-05-24 22:42:00,
2013-05-24 17:48:00,76.0,64.6,30.09,SE,142,5.0,7.0,68,0.00,OVC,OVC,0.00,WeatherDisplay:10.37,2013-05-24 22:48:00,
2013-05-24 17:54:00,76.7,65.3,30.09,SE,130,5.0,6.0,68,0.00,OVC,OVC,0.00,WeatherDisplay:10.37,2013-05-24 22:54:00,
2013-05-24 18:00:00,77.0,65.6,30.09,East,99,5.0,5.0,68,0.00,OVC,OVC,0.00,WeatherDisplay:10.37,2013-05-24 23:00:00,
2013-05-24 18:06:00,77.4,65.6,30.08,East,84,8.0,12.0,67,0.00,OVC,OVC,0.00,WeatherDisplay:10.37,2013-05-24 23:06:00,
2013-05-24 18:12:00,77.1,65.3,30.08,ESE,116,5.0,12.0,67,0.00,OVC,OVC,0.00,WeatherDisplay:10.37,2013-05-24 23:12:00,
2013-05-24 18:18:00,77.2,65.4,30.08,SE,132,5.0,7.0,67,0.00,OVC,OVC,0.00,WeatherDisplay:10.37,2013-05-24 23:18:00,
2013-05-24 18:24:00,77.6,65.7,30.08,ENE,73,7.0,8.0,67,0.00,OVC,OVC,0.00,WeatherDisplay:10.37,2013-05-24 23:24:00,
2013-05-24 18:30:00,76.4,64.7,30.08,ESE,118,9.0,14.0,67,0.00,OVC,OVC,0.00,WeatherDisplay:10.37,2013-05-24 23:30:00,
2013-05-24 18:36:00,77.0,65.2,30.08,SE,130,5.0,10.0,67,0.00,OVC,OVC,0.00,WeatherDisplay:10.37,2013-05-24 23:36:00,
2013-05-24 18:42:00,76.7,64.9,30.08,SE,129,6.0,12.0,67,0.00,OVC,OVC,0.00,WeatherDisplay:10.37,2013-05-24 23:42:00,
2013-05-24 18:48:00,76.1,64.7,30.08,ESE,115,5.0,7.0,68,0.00,OVC,OVC,0.00,WeatherDisplay:10.37,2013-05-24 23:48:00,
2013-05-24 18:54:00,76.1,64.7,30.08,ESE,109,5.0,9.0,68,0.00,OVC,OVC,0.00,WeatherDisplay:10.37,2013-05-24 23:54:00,
2013-05-24 19:00:00,76.1,64.7,30.08,ESE,107,5.0,7.0,68,0.00,OVC,OVC,0.00,WeatherDisplay:10.37,2013-05-25 00:00:00,
2013-05-24 19:06:00,75.9,64.6,30.07,ESE,107,6.0,8.0,68,0.00,OVC,OVC,0.00,WeatherDisplay:10.37,2013-05-25 00:06:00,
2013-05-24 19:12:00,75.8,64.9,30.07,ESE,106,3.0,7.0,69,0.00,OVC,OVC,0.00,WeatherDisplay:10.37,2013-05-25 00:12:00,
2013-05-24 19:18:00,75.6,64.7,30.07,ESE,119,5.0,9.0,69,0.00,OVC,OVC,0.00,WeatherDisplay:10.37,2013-05-25 00:18:00,
2013-05-24 19:24:00,75.4,64.5,30.07,ESE,122,5.0,7.0,69,0.00,OVC,OVC,0.00,WeatherDisplay:10.37,2013-05-25 00:24:00,
2013-05-24 19:30:00,75.1,64.2,30.06,East,87,6.0,9.0,69,0.00,OVC,OVC,0.00,WeatherDisplay:10.37,2013-05-25 00:30:00,
2013-05-24 19:36:00,74.9,64.4,30.06,East,99,6.0,10.0,70,0.00,OVC,OVC,0.00,WeatherDisplay:10.37,2013-05-25 00:36:00,
2013-05-24 19:42:00,74.9,64.4,30.06,ESE,119,5.0,7.0,70,0.00,OVC,OVC,0.00,WeatherDisplay:10.37,2013-05-25 00:42:00,
2013-05-24 19:48:00,74.5,64.0,30.06,ESE,110,5.0,8.0,70,0.00,OVC,OVC,0.00,WeatherDisplay:10.37,2013-05-25 00:48:00,
2013-05-24 19:54:00,74.3,63.9,30.06,ESE,109,5.0,7.0,70,0.00,OVC,OVC,0.00,WeatherDisplay:10.37,2013-05-25 00:54:00,
2013-05-24 20:00:00,74.2,64.2,30.06,ESE,113,6.0,7.0,71,0.00,OVC,OVC,0.00,WeatherDisplay:10.37,2013-05-25 01:00:00,
2013-05-24 20:06:00,73.8,63.8,30.06,East,99,6.0,7.0,71,0.00,SCT,SCT,0.00,WeatherDisplay:10.37,2013-05-25 01:06:00,
2013-05-24 20:12:00,73.6,64.0,30.06,East,94,5.0,7.0,72,0.00,SCT,SCT,0.00,WeatherDisplay:10.37,2013-05-25 01:12:00,
2013-05-24 20:18:00,73.6,64.0,30.06,ESE,103,5.0,6.0,72,0.00,SCT,SCT,0.00,WeatherDisplay:10.37,2013-05-25 01:18:00,
2013-05-24 20:24:00,73.3,63.7,30.06,SE,125,5.0,7.0,72,0.00,SCT,SCT,0.00,WeatherDisplay:10.37,2013-05-25 01:24:00,
2013-05-24 20:30:00,73.2,64.0,30.06,ESE,111,3.0,7.0,73,0.00,SCT,SCT,0.00,WeatherDisplay:10.37,2013-05-25 01:30:00,
2013-05-24 20:36:00,72.7,63.5,30.06,SE,134,5.0,7.0,73,0.00,BKN,BKN,0.00,WeatherDisplay:10.37,2013-05-25 01:36:00,
2013-05-24 20:42:00,72.5,64.1,30.06,ENE,69,3.0,5.0,75,0.00,BKN,BKN,0.00,WeatherDisplay:10.37,2013-05-25 01:42:00,
2013-05-24 20:48:00,72.2,63.8,30.06,East,96,2.0,5.0,75,0.00,BKN,BKN,0.00,WeatherDisplay:10.37,2013-05-25 01:48:00,
2013-05-24 20:54:00,72.0,64.0,30.06,ESE,112,3.0,4.0,76,0.00,BKN,BKN,0.00,WeatherDisplay:10.37,2013-05-25 01:54:00,
2013-05-24 21:00:00,71.8,63.8,30.06,ESE,123,5.0,6.0,76,0.00,BKN,BKN,0.00,WeatherDisplay:10.37,2013-05-25 02:00:00,
2013-05-24 21:06:00,71.8,63.8,30.06,East,98,5.0,7.0,76,0.00,BKN,BKN,0.00,WeatherDisplay:10.37,2013-05-25 02:06:00,
2013-05-24 21:12:00,71.6,63.6,30.06,East,92,6.0,8.0,76,0.00,BKN,BKN,0.00,WeatherDisplay:10.37,2013-05-25 02:12:00,
2013-05-24 21:18:00,71.5,63.5,30.07,ESE,111,2.0,6.0,76,0.00,BKN,BKN,0.00,WeatherDisplay:10.37,2013-05-25 02:18:00,
2013-05-24 21:24:00,71.3,63.7,30.07,ESE,104,5.0,5.0,77,0.00,BKN,BKN,0.00,WeatherDisplay:10.37,2013-05-25 02:24:00,
2013-05-24 21:30:00,71.3,63.7,30.08,SE,126,5.0,7.0,77,0.00,BKN,BKN,0.00,WeatherDisplay:10.37,2013-05-25 02:30:00,
2013-05-24 21:36:00,71.1,63.5,30.08,SE,129,3.0,8.0,77,0.00,BKN,BKN,0.00,WeatherDisplay:10.37,2013-05-25 02:36:00,
2013-05-24 21:42:00,71.1,63.5,30.08,ESE,104,5.0,7.0,77,0.00,BKN,BKN,0.00,WeatherDisplay:10.37,2013-05-25 02:42:00,
2013-05-24 21:48:00,71.1,63.5,30.08,ESE,107,3.0,5.0,77,0.00,BKN,BKN,0.00,WeatherDisplay:10.37,2013-05-25 02:48:00,
2013-05-24 21:54:00,71.1,63.5,30.08,East,95,5.0,7.0,77,0.00,BKN,BKN,0.00,WeatherDisplay:10.37,2013-05-25 02:54:00,
2013-05-24 22:00:00,71.1,63.5,30.08,ESE,109,5.0,7.0,77,0.00,BKN,BKN,0.00,WeatherDisplay:10.37,2013-05-25 03:00:00,
2013-05-24 22:06:00,71.1,63.5,30.08,SE,124,3.0,9.0,77,0.00,BKN,BKN,0.00,WeatherDisplay:10.37,2013-05-25 03:06:00,
2013-05-24 22:12:00,71.1,63.5,30.08,SE,132,5.0,8.0,77,0.00,BKN,BKN,0.00,WeatherDisplay:10.37,2013-05-25 03:12:00,
2013-05-24 22:18:00,71.1,63.5,30.09,ESE,118,9.0,17.0,77,0.00,BKN,BKN,0.00,WeatherDisplay:10.37,2013-05-25 03:18:00,
2013-05-24 22:24:00,71.1,63.5,30.09,ESE,120,5.0,7.0,77,0.00,BKN,BKN,0.00,WeatherDisplay:10.37,2013-05-25 03:24:00,
2013-05-24 22:30:00,71.1,63.5,30.09,SE,141,7.0,7.0,77,0.00,BKN,BKN,0.00,WeatherDisplay:10.37,2013-05-25 03:30:00,
2013-05-24 22:36:00,71.1,63.5,30.09,SE,131,5.0,7.0,77,0.00,BKN,BKN,0.00,WeatherDisplay:10.37,2013-05-25 03:36:00,
2013-05-24 22:42:00,71.1,63.5,30.10,SE,136,8.0,14.0,77,0.00,BKN,BKN,0.00,WeatherDisplay:10.37,2013-05-25 03:42:00,
2013-05-24 22:48:00,71.1,63.5,30.10,ESE,114,6.0,9.0,77,0.00,BKN,BKN,0.00,WeatherDisplay:10.37,2013-05-25 03:48:00,
2013-05-24 22:54:00,70.9,63.3,30.10,ESE,107,6.0,8.0,77,0.00,BKN,BKN,0.00,WeatherDisplay:10.37,2013-05-25 03:54:00,
2013-05-24 23:00:00,70.7,63.5,30.10,ESE,109,6.0,9.0,78,0.00,BKN,BKN,0.00,WeatherDisplay:10.37,2013-05-25 04:00:00,
2013-05-24 23:03:00,70.7,63.5,30.10,ESE,114,6.0,9.0,78,0.00,OVC,OVC,0.00,WeatherDisplay:10.37,2013-05-25 04:03:00,
2013-05-24 23:09:00,70.7,63.5,30.10,ESE,116,5.0,8.0,78,0.00,OVC,OVC,0.00,WeatherDisplay:10.37,2013-05-25 04:09:00,
2013-05-24 23:12:00,70.6,63.4,30.09,ESE,123,7.0,8.0,78,0.00,OVC,OVC,0.00,WeatherDisplay:10.37,2013-05-25 04:12:00,
2013-05-24 23:18:00,70.6,63.4,30.09,SE,134,5.0,8.0,78,0.00,OVC,OVC,0.00,WeatherDisplay:10.37,2013-05-25 04:18:00,
2013-05-24 23:21:00,70.6,63.4,30.09,ESE,119,5.0,8.0,78,0.00,OVC,OVC,0.00,WeatherDisplay:10.37,2013-05-25 04:21:00,
2013-05-24 23:27:00,70.5,63.3,30.09,ESE,118,5.0,7.0,78,0.00,OVC,OVC,0.00,WeatherDisplay:10.37,2013-05-25 04:27:00,
2013-05-24 23:30:00,70.4,63.2,30.09,ESE,118,5.0,7.0,78,0.00,OVC,OVC,0.00,WeatherDisplay:10.37,2013-05-25 04:30:00,
2013-05-24 23:36:00,70.4,63.2,30.09,SE,141,5.0,9.0,78,0.00,OVC,OVC,0.00,WeatherDisplay:10.37,2013-05-25 04:36:00,
2013-05-24 23:42:00,70.2,63.0,30.09,SE,137,3.0,6.0,78,0.00,OVC,OVC,0.00,WeatherDisplay:10.37,2013-05-25 04:42:00,
2013-05-24 23:48:00,70.2,63.0,30.09,SE,127,3.0,7.0,78,0.00,OVC,OVC,0.00,WeatherDisplay:10.37,2013-05-25 04:48:00,
2013-05-24 23:54:00,70.0,62.8,30.10,ESE,119,6.0,7.0,78,0.00,OVC,OVC,0.00,WeatherDisplay:10.37,2013-05-25 04:54:00,